[Iaude] MPEC B27: 2024 BF [a=0.97,e=0.11,i=2.7,H=24.2]
    mpec at marsden.cfa.harvard.edu 
    mpec at marsden.cfa.harvard.edu
       
    Thu Jan 18 00:08:19 EST 2024
    
    
  
M.P.E.C. 2024-B27                              Issued 2024 January 18, 05:06 UT
     The Minor Planet Electronic Circulars contain information on unusual
         minor planets, routine data on comets and natural satellites,
         and occasional editorial announcements.  They are published
    on behalf of Division F of the International Astronomical Union by the
          Minor Planet Center, Smithsonian Astrophysical Observatory,
                          Cambridge, MA 02138, U.S.A.
			  
             Prepared using the Tamkin Foundation Computer Network
                              MPC at CFA.HARVARD.EDU
            URL https://www.minorplanetcenter.net/    ISSN 1523-6714
                                    2024 BF                                     
Observations:
     K24B00F*1C2024 01 16.39929309 57 45.515-17 25 59.88         21.13GVEB027G96
     K24B00F 1C2024 01 16.40442909 57 44.428-17 26 01.28         21.00GVEB027G96
     K24B00F 1C2024 01 16.40957509 57 43.308-17 26 01.90         20.37GVEB027G96
     K24B00F mC2024 01 16.44435709 57 35.820-17 26 07.50               VEB027V06
     K24B00F mC2024 01 16.44514909 57 35.640-17 26 08.20         21.00GVEB027V06
     K24B00F mC2024 01 16.44594509 57 35.470-17 26 07.90         21.57GVEB027V06
     K24B00F mC2024 01 16.44673709 57 35.290-17 26 08.00         21.39GVEB027V06
     K24B00F KC2024 01 17.38776809 54 39.989-17 28 31.76         20.86GVEB027V06
     K24B00F KC2024 01 17.39058509 54 39.370-17 28 32.23         20.65GVEB027V06
     K24B00F KC2024 01 17.39340109 54 38.729-17 28 32.66         20.64GVEB027V06
     K24B00F KC2024 01 17.39621709 54 38.110-17 28 32.70         20.59GVEB027V06
     K24B00F |C2024 01 18.16333009 52 13.370-17 28 09.00         20.6 GVEB027807
     K24B00F |C2024 01 18.16935009 52 12.030-17 28 09.90         20.9 GVEB027807
     K24B00F |C2024 01 18.17536009 52 10.710-17 28 10.50         20.8 GVEB027807
Observer details:
807 Cerro Tololo Observatory, La Serena.  Observers T. Linder, R. Holmes.
    0.61-m f/11 Ritchey-Chretien + CCD.
G96 Mt. Lemmon Survey.  Observer J. K. Hogan.  Measurers T. Beuden, V. F.
    Carvajal, D. Fay, J. B. Fazekas, D. C. Fuls, A. R. Gibbs, A. D. Grauer, H.
    Groeller, J. K. Hogan, R. A. Kowalski, S. M. Larson, G. J. Leonard, D.
    Rankin, R. L. Seaman, F. C. Shelly, K. W. Wierzchos.  1.5-m reflector +
    10K CCD.
V06 Catalina Sky Survey-Kuiper.  Observer G. J. Leonard.  Measurers T. Beuden,
    V. F. Carvajal, D. Fay, J. B. Fazekas, D. C. Fuls, A. R. Gibbs, A. D.
    Grauer, H. Groeller, J. K. Hogan, R. A. Kowalski, S. M. Larson, G. J.
    Leonard, D. Rankin, R. L. Seaman, F. C. Shelly, K. W. Wierzchos.  1.55-m
    reflector + 1K CCD.
Orbital elements:
2024 BF                                                  Earth MOID = 0.0006 AU
Epoch 2023 Sept. 13.0 TT = JDT 2460200.5                MPC                     
M   4.58134              (2000.0)            P               Q                  
n   1.02675383     Peri.  114.27620     +0.91968740     +0.39130508             
a   0.9731023      Node   222.70800     -0.37538428     +0.85196287             
e   0.1131389      Incl.    2.74539     -0.11515959     +0.34790746             
P   0.96           H   24.25          G   0.15           U   8                  
Residuals in seconds of arc
240116 G96  0.3-  0.1+    240116 V06  0.2+  0.1+    240117 V06  0.0   0.1+
240116 G96  0.0   0.3-    240116 V06  0.1+  0.1+    240118 807  0.2+  0.1-
240116 G96  0.1-  0.0     240117 V06  0.0   0.0     240118 807  0.1-  0.1-
240116 V06  0.3+  0.3+    240117 V06  0.1+  0.1-    240118 807  0.0   0.2+
240116 V06  0.2+  0.3-    240117 V06  0.1-  0.2-
Ephemeris:
2024 BF                  a,e,i = 0.97, 0.11, 3                   q = 0.8630
Date    TT    R. A. (2000) Decl.     Delta      r    Elong.  Phase     V
2023 12 19    10 44 53.0 -10 49 42   0.1252  1.0113    99.1    73.9    22.3
...
2024 01 03    10 29 12.9 -15 12 12   0.1150  1.0362   114.4    59.8    21.8
...
2024 01 11    10 12 49.6 -16 50 54   0.1086  1.0476   123.7    51.4    21.4
...
2024 01 17    09 55 53.4 -17 26 37   0.1044  1.0553   131.1    44.7    21.2
2024 01 18    09 52 41.9 -17 28 23   0.1038  1.0565   132.3    43.5    21.1
2024 01 19    09 49 24.5 -17 28 51   0.1032  1.0576   133.5    42.4    21.1
...
2024 01 25    09 27 56.8 -17 01 41   0.1006  1.0641   140.7    35.9    20.9
...
2024 02 02    08 56 44.4 -14 59 54   0.09993 1.0713   147.9    29.3    20.7
...
2024 02 17    08 06 00.5 -07 43 09   0.1097  1.0802   145.6    31.2    21.0
A. U. Tomatic                (C) Copyright 2024 MPC           M.P.E.C. 2024-B27
    
    
More information about the Iaude
mailing list